This is the latest recevied weather packets stored in our database for station/object KM4KMS. If no packets are shown the sender has not sent any weather packets the latest 10 day(s).
| Time | Temp. | Humidity | Pressure | Rain* | Wind** | Luminosity | Snow |
|---|---|---|---|---|---|---|---|
| 1778113958 | 12.78° C | 69% | 1013 hPa | 0 mm | - | 3 W/m² | - |
| 1778113654 | 13.33° C | 68% | 1013.1 hPa | 0 mm | - | 6 W/m² | - |
| 1778113351 | 13.33° C | 67% | 1013.1 hPa | 0 mm | - | 11 W/m² | - |
| 1778113048 | 13.33° C | 68% | 1013.1 hPa | 0 mm | - | 11 W/m² | - |
| 1778112745 | 13.33° C | 66% | 1012.9 hPa | 0 mm | - | 13 W/m² | - |
| 1778112441 | 13.33° C | 66% | 1012.7 hPa | 0 mm | - | 12 W/m² | - |
| 1778112137 | 13.33° C | 65% | 1012.8 hPa | 0 mm | - | 15 W/m² | - |
| 1778111834 | 13.89° C | 66% | 1012.5 hPa | 0 mm | - | 16 W/m² | - |
| 1778111529 | 13.89° C | 67% | 1012.6 hPa | 0 mm | - | 14 W/m² | - |
| 1778111226 | 13.89° C | 65% | 1012.4 hPa | 0 mm | - | 16 W/m² | - |
| 1778110924 | 13.89° C | 65% | 1012.6 hPa | 0 mm | - | 20 W/m² | - |
| 1778110621 | 13.89° C | 64% | 1012.6 hPa | 0 mm | - | 24 W/m² | - |
| 1778110318 | 13.89° C | 62% | 1012.8 hPa | 0 mm | - | 31 W/m² | - |
| 1778110014 | 13.89° C | 62% | 1012.5 hPa | 0 mm | - | 36 W/m² | - |
| 1778109709 | 13.89° C | 62% | 1012.4 hPa | 0 mm | - | 41 W/m² | - |
| 1778109406 | 14.44° C | 61% | 1012.7 hPa | 0 mm | - | 41 W/m² | - |
| 1778109105 | 14.44° C | 61% | 1012.5 hPa | 0 mm | - | 43 W/m² | - |
| 1778108801 | 14.44° C | 64% | 1012.4 hPa | 0 mm | - | 51 W/m² | - |
| 1778108498 | 14.44° C | 64% | 1012.5 hPa | 0 mm | - | 53 W/m² | - |
| 1778108195 | 14.44° C | 63% | 1012.6 hPa | 0 mm | - | 50 W/m² | - |
| 1778107892 | 14.44° C | 62% | 1012.3 hPa | 0 mm | - | 58 W/m² | - |
| 1778107588 | 14.44° C | 64% | 1011.9 hPa | 0 mm | - | 73 W/m² | - |
| 1778107285 | 14.44° C | 64% | 1011.8 hPa | 0 mm | - | 52 W/m² | - |
| 1778106981 | 14.44° C | 66% | 1011.7 hPa | 0 mm | - | 50 W/m² | - |
| 1778106677 | 14.44° C | 66% | 1011.8 hPa | 0 mm | - | 62 W/m² | - |
* Rain latest hour (hover to see other rain measurements)
** Current wind speed in m/s (hover to see current wind gust speed)